TimeCST,TemperatureF,Dew PointF,Humidity,Sea Level PressureIn,VisibilityMPH,Wind Direction,Wind SpeedMPH,Gust SpeedMPH,PrecipitationIn,Events,Conditions,WindDirDegrees,DateUTC
12:53 AM,44.1,10.9,26,29.42,10.0,SW,20.7,-,N/A,,Mostly Cloudy,220,2014-01-30 06:53:00
1:53 AM,43.0,12.0,28,29.40,10.0,WSW,11.5,-,N/A,,Clear,240,2014-01-30 07:53:00
2:53 AM,42.1,12.9,31,29.41,10.0,WSW,13.8,-,N/A,,Mostly Cloudy,240,2014-01-30 08:53:00
3:53 AM,41.0,17.1,38,29.41,10.0,WSW,8.1,-,N/A,,Scattered Clouds,240,2014-01-30 09:53:00
4:53 AM,51.1,28.0,41,29.43,10.0,WNW,19.6,-,N/A,,Clear,300,2014-01-30 10:53:00
5:53 AM,46.9,33.1,59,29.49,10.0,NNW,25.3,33.4,N/A,,Clear,330,2014-01-30 11:53:00
6:53 AM,44.1,30.0,58,29.57,10.0,WNW,12.7,-,N/A,,Clear,300,2014-01-30 12:53:00
7:53 AM,41.0,-9999,N/A,29.62,10.0,NW,10.4,-,N/A,,Clear,310,2014-01-30 13:53:00
8:53 AM,42.1,-9999,N/A,29.65,10.0,NNW,16.1,-,N/A,,Clear,330,2014-01-30 14:53:00
9:53 AM,39.0,25.0,57,29.72,10.0,North,27.6,35.7,N/A,,Scattered Clouds,360,2014-01-30 15:53:00
10:53 AM,36.0,21.9,57,29.77,10.0,North,20.7,-,N/A,,Clear,10,2014-01-30 16:53:00
11:53 AM,37.9,21.0,51,29.82,10.0,NNE,13.8,-,N/A,,Clear,30,2014-01-30 17:53:00
12:53 PM,37.9,19.9,48,29.82,10.0,NE,16.1,-,N/A,,Clear,50,2014-01-30 18:53:00
1:53 PM,36.0,19.0,50,29.83,10.0,NE,15.0,-,N/A,,Clear,50,2014-01-30 19:53:00
2:53 PM,35.1,18.0,50,29.83,10.0,NNE,12.7,20.7,N/A,,Clear,30,2014-01-30 20:53:00
3:53 PM,33.1,17.1,52,29.87,10.0,NE,11.5,-,N/A,,Overcast,40,2014-01-30 21:53:00
4:53 PM,30.9,16.0,54,29.89,10.0,NE,10.4,-,N/A,,Overcast,40,2014-01-30 22:53:00
5:53 PM,30.0,16.0,56,29.92,10.0,NE,9.2,-,N/A,,Overcast,50,2014-01-30 23:53:00
6:53 PM,28.0,18.0,66,29.96,7.0,NE,11.5,-,N/A,,Overcast,50,2014-01-31 00:53:00
7:16 PM,27.0,19.9,75,29.92,3.0,ENE,10.4,-,0.00,Snow,Light Snow,60,2014-01-31 01:16:00
7:26 PM,26.1,21.0,81,29.93,1.8,ENE,9.2,-,0.00,Snow,Light Snow,70,2014-01-31 01:26:00
7:49 PM,24.8,21.2,86,29.94,0.8,East,6.9,-,0.00,Snow,Light Snow,80,2014-01-31 01:49:00
7:53 PM,25.0,23.0,92,29.99,0.8,East,8.1,-,0.00,Snow,Light Snow,80,2014-01-31 01:53:00
8:43 PM,25.0,23.0,92,29.94,1.0,ENE,5.8,-,0.02,Snow,Light Snow,70,2014-01-31 02:43:00
8:53 PM,25.0,23.0,92,30.00,0.8,ENE,6.9,-,0.03,Snow,Light Snow,70,2014-01-31 02:53:00
9:24 PM,24.1,21.9,91,29.93,1.0,ENE,10.4,-,0.02,Snow,Light Snow,70,2014-01-31 03:24:00
9:53 PM,24.1,21.9,91,29.99,1.0,ENE,10.4,-,0.03,Snow,Light Snow,70,2014-01-31 03:53:00
10:11 PM,24.1,21.9,91,29.93,1.2,ENE,12.7,-,0.00,Snow,Light Snow,60,2014-01-31 04:11:00
10:36 PM,24.1,21.0,88,29.93,2.0,ENE,12.7,-,0.00,Snow,Light Snow,70,2014-01-31 04:36:00
10:50 PM,24.8,21.2,86,29.93,3.0,ENE,10.4,-,0.00,Snow,Light Snow,70,2014-01-31 04:50:00
10:53 PM,24.1,21.0,88,30.01,3.0,ENE,12.7,-,0.00,Snow,Light Snow,70,2014-01-31 04:53:00
11:32 PM,23.0,21.0,92,29.92,2.5,ENE,12.7,-,0.00,Snow,Light Snow,60,2014-01-31 05:32:00
11:41 PM,23.0,21.0,92,29.92,3.0,ENE,11.5,-,0.00,Snow,Light Snow,60,2014-01-31 05:41:00
11:49 PM,23.0,19.4,86,29.92,3.0,ENE,12.7,-,0.00,Snow,Light Snow,70,2014-01-31 05:49:00
11:53 PM,23.0,19.9,88,29.99,2.5,ENE,11.5,-,0.00,Snow,Light Snow,70,2014-01-31 05:53:00